Radiation Dose at Monitoring Post of Fukushima Daini Nuclear Power Station
Date,Time,MP-1(microSv/h),MP-2(microSv/h),MP-3(microSv/h),MP-4(microSv/h),MP-5(microSv/h),MP-6(microSv/h),MP-7(microSv/h),Wind Direction,Wind Velocity(m/s),Rain
2015/03/15,00:00,0.543,0.335,0.569,0.524,0.554,0.255,0.227,north-northwest,2.7,No
2015/03/15,00:10,0.542,0.333,0.567,0.523,0.553,0.255,0.228,north-northwest,1.9,No
2015/03/15,00:20,0.542,0.335,0.565,0.524,0.551,0.256,0.227,west-northwest,3.6,No
2015/03/15,00:30,0.544,0.335,0.568,0.523,0.553,0.256,0.227,northwest,4.5,No
2015/03/15,00:40,0.543,0.334,0.566,0.524,0.553,0.254,0.227,northwest,5.8,No
2015/03/15,00:50,0.543,0.335,0.567,0.523,0.554,0.256,0.228,north-northwest,5.6,No
2015/03/15,01:00,0.543,0.334,0.567,0.521,0.554,0.255,0.226,north-northwest,4.0,No
2015/03/15,01:10,0.542,0.333,0.566,0.525,0.553,0.255,0.227,north-northwest,3.3,No
2015/03/15,01:20,0.540,0.335,0.564,0.523,0.553,0.256,0.228,northwest,2.8,No
2015/03/15,01:30,0.541,0.334,0.568,0.523,0.552,0.254,0.227,northwest,2.7,No
2015/03/15,01:40,0.542,0.334,0.566,0.523,0.555,0.255,0.227,northwest,3.7,No
2015/03/15,01:50,0.542,0.333,0.565,0.522,0.552,0.255,0.228,northwest,4.2,No
2015/03/15,02:00,0.540,0.335,0.566,0.523,0.551,0.255,0.227,north-northwest,2.6,No
2015/03/15,02:10,0.541,0.335,0.568,0.523,0.552,0.255,0.226,north-northwest,2.8,No
2015/03/15,02:20,0.542,0.334,0.567,0.523,0.553,0.255,0.227,north-northwest,1.8,No
2015/03/15,02:30,0.543,0.333,0.568,0.524,0.553,0.255,0.226,west-northwest,0.6,No
2015/03/15,02:40,0.544,0.334,0.565,0.523,0.552,0.256,0.227,-,CALM,No
2015/03/15,02:50,0.543,0.335,0.567,0.523,0.552,0.255,0.227,-,CALM,No
2015/03/15,03:00,0.542,0.334,0.568,0.524,0.551,0.256,0.227,south-southwest,0.6,No
2015/03/15,03:10,0.542,0.333,0.569,0.523,0.554,0.255,0.226,-,CALM,No
2015/03/15,03:20,0.542,0.335,0.566,0.521,0.554,0.255,0.227,south,1.3,No
2015/03/15,03:30,0.541,0.335,0.565,0.521,0.554,0.257,0.227,south,1.1,No
2015/03/15,03:40,0.541,0.335,0.567,0.523,0.552,0.255,0.226,south-southwest,1.3,No
2015/03/15,03:50,0.543,0.333,0.568,0.524,0.553,0.256,0.227,south-southwest,1.1,No
2015/03/15,04:00,0.542,0.333,0.569,0.522,0.553,0.255,0.227,south,1.1,No
2015/03/15,04:10,0.542,0.333,0.567,0.523,0.553,0.256,0.228,south-southeast,1.9,No
2015/03/15,04:20,0.542,0.335,0.566,0.523,0.553,0.256,0.227,southeast,1.2,No
2015/03/15,04:30,0.542,0.334,0.566,0.522,0.551,0.255,0.227,south-southeast,0.8,No
2015/03/15,04:40,0.542,0.333,0.566,0.525,0.553,0.255,0.227,south-southeast,1.9,No
2015/03/15,04:50,0.543,0.333,0.569,0.525,0.554,0.255,0.227,south-southeast,3.0,No
2015/03/15,05:00,0.542,0.333,0.568,0.521,0.555,0.255,0.226,south-southeast,1.8,No
2015/03/15,05:10,0.542,0.333,0.568,0.523,0.553,0.254,0.227,south-southeast,2.8,No
2015/03/15,05:20,0.542,0.335,0.567,0.523,0.553,0.254,0.225,south,1.7,No
2015/03/15,05:30,0.542,0.335,0.567,0.524,0.552,0.256,0.227,south,1.4,No
2015/03/15,05:40,0.541,0.333,0.568,0.522,0.553,0.255,0.227,south,1.7,No
2015/03/15,05:50,0.542,0.334,0.569,0.524,0.556,0.255,0.228,south,1.3,No
2015/03/15,06:00,0.541,0.335,0.568,0.523,0.554,0.255,0.228,south-southwest,1.6,No
2015/03/15,06:10,0.543,0.333,0.564,0.523,0.553,0.256,0.227,south-southwest,1.5,No
2015/03/15,06:20,0.543,0.334,0.565,0.523,0.554,0.256,0.227,west-southwest,1.7,No
2015/03/15,06:30,0.541,0.334,0.566,0.522,0.552,0.254,0.227,west-southwest,0.9,No
2015/03/15,06:40,0.542,0.334,0.567,0.522,0.554,0.254,0.227,west-southwest,1.0,No
2015/03/15,06:50,0.543,0.333,0.569,0.522,0.553,0.256,0.228,west-southwest,1.2,No
2015/03/15,07:00,0.541,0.333,0.566,0.522,0.553,0.254,0.227,west-southwest,1.0,No
2015/03/15,07:10,0.541,0.334,0.567,0.523,0.553,0.255,0.226,south-southwest,1.7,No
2015/03/15,07:20,0.542,0.334,0.565,0.521,0.554,0.254,0.226,south-southwest,3.2,No
2015/03/15,07:30,0.541,0.334,0.568,0.522,0.553,0.255,0.227,south-southwest,2.5,No
2015/03/15,07:40,0.544,0.333,0.566,0.523,0.553,0.256,0.227,south,2.2,No
2015/03/15,07:50,0.543,0.334,0.566,0.523,0.552,0.253,0.227,south-southwest,3.7,No
2015/03/15,08:00,0.541,0.333,0.567,0.524,0.556,0.256,0.227,south-southwest,4.5,No
2015/03/15,08:10,0.543,0.334,0.568,0.523,0.553,0.254,0.228,south,5.0,No
2015/03/15,08:20,0.544,0.333,0.565,0.523,0.554,0.254,0.226,south,3.2,No
2015/03/15,08:30,0.543,0.333,0.567,0.524,0.556,0.254,0.226,south,5.3,No
2015/03/15,08:40,0.542,0.334,0.568,0.525,0.554,0.255,0.227,south,4.7,No
2015/03/15,08:50,0.545,0.333,0.567,0.522,0.552,0.253,0.226,south,5.4,No
2015/03/15,09:00,0.542,0.332,0.565,0.522,0.554,0.255,0.224,south,5.2,No
2015/03/15,09:10,0.544,0.333,0.567,0.521,0.554,0.255,0.226,south,7.4,No
2015/03/15,09:20,0.542,0.334,0.564,0.522,0.555,0.254,0.225,south,8.2,No
2015/03/15,09:30,0.541,0.332,0.566,0.524,0.553,0.256,0.228,south,6.4,No
2015/03/15,09:40,0.542,0.333,0.566,0.522,0.554,0.254,0.225,south,6.9,No
2015/03/15,09:50,0.538,0.333,0.567,0.524,0.558,0.255,0.225,south,7.6,No
2015/03/15,10:00,0.542,0.331,0.565,0.524,0.553,0.255,0.226,south,6.7,No
2015/03/15,10:10,0.540,0.335,0.567,0.521,0.556,0.255,0.225,south,7.1,No
2015/03/15,10:20,0.543,0.334,0.568,0.527,0.560,0.256,0.226,south,6.8,No
2015/03/15,10:30,0.541,0.335,0.566,0.522,0.556,0.255,0.227,south,8.1,No
2015/03/15,10:40,0.543,0.334,0.568,0.524,0.558,0.256,0.226,south,8.4,No
2015/03/15,10:50,0.541,0.332,0.566,0.524,0.555,0.255,0.226,south,8.8,No
2015/03/15,11:00,0.543,0.333,0.565,0.521,0.558,0.254,0.226,south,9.4,No
2015/03/15,11:10,0.541,0.333,0.568,0.525,0.555,0.256,0.226,south-southeast,9.2,No
2015/03/15,11:20,0.543,0.334,0.563,0.522,0.555,0.255,0.227,south,9.1,No
2015/03/15,11:30,0.543,0.334,0.569,0.526,0.558,0.255,0.226,south,10.8,No
2015/03/15,11:40,0.544,0.334,0.564,0.523,0.553,0.255,0.227,south,10.1,No
2015/03/15,11:50,0.542,0.332,0.568,0.525,0.558,0.256,0.226,south,10.2,No
2015/03/15,12:00,0.542,0.334,0.563,0.525,0.553,0.256,0.225,south,10.9,No
2015/03/15,12:10,0.544,0.335,0.567,0.521,0.557,0.255,0.228,south,10.6,No
2015/03/15,12:20,0.542,0.333,0.564,0.526,0.553,0.256,0.227,south,10.5,No
2015/03/15,12:30,0.545,0.335,0.569,0.523,0.556,0.255,0.227,south-southeast,10.5,No
2015/03/15,12:40,0.542,0.335,0.562,0.525,0.556,0.256,0.225,south,11.0,No
2015/03/15,12:50,0.547,0.335,0.570,0.525,0.555,0.256,0.227,south,10.4,No
2015/03/15,13:00,0.542,0.335,0.565,0.525,0.560,0.256,0.228,south,11.2,No
2015/03/15,13:10,0.548,0.334,0.568,0.527,0.555,0.255,0.226,south,9.0,No
2015/03/15,13:20,0.543,0.335,0.564,0.524,0.559,0.255,0.227,south,9.2,No
2015/03/15,13:30,0.544,0.334,0.569,0.526,0.555,0.256,0.227,south,10.9,No
2015/03/15,13:40,0.544,0.336,0.568,0.524,0.560,0.255,0.227,south,9.6,No
2015/03/15,13:50,0.546,0.334,0.566,0.526,0.556,0.257,0.227,south,10.2,No
2015/03/15,14:00,0.544,0.334,0.569,0.528,0.556,0.254,0.228,south,10.7,No
2015/03/15,14:10,0.544,0.336,0.565,0.523,0.558,0.255,0.227,south,10.1,No
2015/03/15,14:20,0.549,0.335,0.568,0.527,0.556,0.256,0.227,south,8.5,No
2015/03/15,14:30,0.541,0.335,0.565,0.526,0.557,0.255,0.227,south-southeast,9.2,No
2015/03/15,14:40,0.546,0.333,0.569,0.526,0.552,0.255,0.228,south,9.4,No
2015/03/15,14:50,0.542,0.335,0.566,0.527,0.558,0.255,0.227,south,8.9,No
2015/03/15,15:00,0.547,0.334,0.571,0.525,0.555,0.257,0.227,south,9.0,No
2015/03/15,15:10,0.543,0.334,0.570,0.525,0.558,0.254,0.227,south,9.8,No
2015/03/15,15:20,0.547,0.335,0.569,0.527,0.560,0.256,0.226,south,9.8,No
2015/03/15,15:30,0.547,0.333,0.570,0.525,0.558,0.256,0.228,south,9.5,No
2015/03/15,15:40,0.544,0.335,0.568,0.525,0.559,0.255,0.228,south,9.5,No
2015/03/15,15:50,0.547,0.336,0.569,0.529,0.557,0.256,0.228,south,8.1,No
2015/03/15,16:00,0.546,0.335,0.570,0.526,0.556,0.255,0.229,south,8.1,No
2015/03/15,16:10,0.546,0.335,0.567,0.527,0.558,0.257,0.229,south,8.4,No
2015/03/15,16:20,0.546,0.334,0.572,0.528,0.555,0.256,0.229,south,8.2,No
2015/03/15,16:30,0.542,0.334,0.569,0.525,0.557,0.256,0.227,south,7.8,No
2015/03/15,16:40,0.548,0.335,0.567,0.525,0.556,0.256,0.228,south,8.4,No
2015/03/15,16:50,0.543,0.335,0.569,0.527,0.554,0.257,0.227,south,8.0,No
2015/03/15,17:00,0.548,0.335,0.567,0.526,0.556,0.255,0.227,south,6.8,No
2015/03/15,17:10,0.546,0.336,0.567,0.525,0.557,0.256,0.227,south-southwest,7.2,No
2015/03/15,17:20,0.544,0.332,0.569,0.527,0.557,0.256,0.227,south,7.0,No
2015/03/15,17:30,0.547,0.335,0.568,0.524,0.557,0.256,0.229,south,7.3,No
2015/03/15,17:40,0.544,0.337,0.569,0.524,0.556,0.256,0.227,south-southwest,7.5,No
2015/03/15,17:50,0.546,0.335,0.570,0.526,0.556,0.255,0.227,south-southwest,7.0,No
2015/03/15,18:00,0.545,0.335,0.569,0.526,0.556,0.256,0.227,south-southwest,7.5,No
2015/03/15,18:10,0.544,0.335,0.569,0.524,0.555,0.256,0.227,south-southwest,7.5,No
2015/03/15,18:20,0.546,0.334,0.570,0.528,0.556,0.256,0.228,south-southwest,7.4,No
2015/03/15,18:30,0.543,0.334,0.567,0.525,0.556,0.255,0.228,south-southwest,6.1,No
2015/03/15,18:40,0.544,0.336,0.570,0.526,0.554,0.256,0.228,south-southwest,5.6,No
2015/03/15,18:50,0.547,0.334,0.568,0.526,0.555,0.255,0.228,south-southwest,4.7,No
2015/03/15,19:00,0.545,0.335,0.566,0.525,0.555,0.256,0.228,south-southwest,4.2,No
2015/03/15,19:10,0.544,0.335,0.570,0.525,0.558,0.256,0.228,south-southwest,3.9,No
2015/03/15,19:20,0.545,0.333,0.567,0.525,0.555,0.255,0.227,south-southwest,4.0,No
2015/03/15,19:30,0.543,0.336,0.566,0.525,0.556,0.255,0.228,south,3.8,No
2015/03/15,19:40,0.547,0.335,0.569,0.523,0.557,0.256,0.227,south,2.9,No
2015/03/15,19:50,0.545,0.334,0.567,0.527,0.555,0.256,0.228,south-southeast,2.2,No
2015/03/15,20:00,0.545,0.336,0.568,0.525,0.555,0.256,0.228,south,2.4,No
2015/03/15,20:10,0.545,0.336,0.567,0.523,0.554,0.254,0.227,south-southeast,2.5,No
2015/03/15,20:20,0.543,0.334,0.566,0.527,0.555,0.256,0.226,south-southwest,2.5,No
2015/03/15,20:30,0.546,0.336,0.570,0.527,0.557,0.255,0.227,south,2.2,No
2015/03/15,20:40,0.546,0.334,0.567,0.524,0.557,0.255,0.229,south-southeast,1.4,No
2015/03/15,20:50,0.543,0.333,0.568,0.527,0.555,0.257,0.226,southwest,1.4,No
2015/03/15,21:00,0.545,0.334,0.568,0.526,0.559,0.255,0.227,southwest,0.8,No
2015/03/15,21:10,0.545,0.335,0.568,0.525,0.555,0.256,0.227,north-northeast,0.6,No
2015/03/15,21:20,0.544,0.336,0.567,0.526,0.554,0.255,0.228,north-northwest,1.1,No
2015/03/15,21:30,0.547,0.335,0.570,0.525,0.556,0.256,0.227,north,1.6,No
2015/03/15,21:40,0.543,0.336,0.569,0.524,0.557,0.255,0.228,north-northeast,2.0,No
2015/03/15,21:50,0.545,0.334,0.568,0.527,0.554,0.256,0.228,north,3.1,No
2015/03/15,22:00,0.545,0.335,0.570,0.525,0.555,0.256,0.228,north,4.0,No
2015/03/15,22:10,0.544,0.335,0.570,0.526,0.554,0.256,0.227,north-northeast,2.8,No
2015/03/15,22:20,0.545,0.336,0.569,0.527,0.555,0.256,0.227,north-northeast,2.5,No
2015/03/15,22:30,0.547,0.335,0.568,0.528,0.556,0.255,0.228,north-northeast,2.5,No
2015/03/15,22:40,0.544,0.336,0.571,0.526,0.558,0.254,0.227,north,0.7,No
2015/03/15,22:50,0.543,0.337,0.568,0.523,0.555,0.256,0.227,north,3.3,No
2015/03/15,23:00,0.547,0.335,0.568,0.527,0.555,0.256,0.229,north,3.6,No
2015/03/15,23:10,0.544,0.335,0.571,0.527,0.556,0.254,0.227,north,3.7,No
2015/03/15,23:20,0.543,0.334,0.569,0.525,0.558,0.256,0.227,north,2.8,No
2015/03/15,23:30,0.546,0.335,0.569,0.524,0.557,0.255,0.228,north,2.3,No
2015/03/15,23:40,0.544,0.335,0.569,0.527,0.555,0.256,0.227,north,2.3,No
2015/03/15,23:50,0.543,0.336,0.568,0.527,0.554,0.256,0.228,north,1.7,No
